Location: Alpha Ridge Park
(39.3209°N, 76.9128°W)
Time: 16:39:04
(UTC-04:00)

S-56A Canister/Altair - Pass Details

Date: 23 May 2019
Orbit: 633 x 2499 km, 38.9° (Epoch: 17 June)

Event Time Altitude Azimuth Distance (km) Brightness Sun altitude
Rises 00:07:25 0° 182° (S) 3,087 - -28.7°
Reaches altitude 10° 00:11:41 10° 146° (SE) 2,428 - -28.9°
Maximum altitude 00:13:09 11° 130° (SE) 2,465 - -29.0°
Drops below altitude 10° 00:14:43 10° 115° (ESE) 2,656 - -29.0°
Exits shadow 00:18:30 - 90° (E) 3,547 10.8 -29.2°
Sets 00:20:20 0° 83° (E) 4,093 11.2 -29.3°
